• In Netherlands
  • List of Countries
  • For 7 days
  • Water Temperature
  • Satellite Maps
  • Weather Map
  • Weather Widgets
  • user-avatar
    Login

    Hourly Weather Yulara

    Today, 20 February, Monday

    Time Temperature Precipitation Wind Pressure Humidity
    00:00 +23°C° 0 mm 4 mps 718 mmHg 21%
    01:00 +22°C° 0 mm 4 mps 718 mmHg 22%
    02:00 +22°C° 0 mm 4 mps 718 mmHg 24%
    03:00 +21°C° 0 mm 4 mps 718 mmHg 25%
    04:00 +20°C° 0 mm 4 mps 718 mmHg 26%
    05:00 +20°C° 0 mm 4 mps 718 mmHg 27%
    06:00 +19°C° 0 mm 4 mps 718 mmHg 29%
    07:00 +21°C° 0 mm 4 mps 718 mmHg 26%
    08:00 +22°C° 0 mm 5 mps 718 mmHg 24%
    09:00 +25°C° 0 mm 5 mps 719 mmHg 22%
    10:00 +26°C° 0 mm 5 mps 718 mmHg 20%
    11:00 +28°C° 0 mm 5 mps 718 mmHg 17%
    12:00 +29°C° 0 mm 4 mps 718 mmHg 15%
    13:00 +30°C° 0 mm 4 mps 717 mmHg 13%
    14:00 +32°C° 0 mm 4 mps 717 mmHg 12%
    15:00 +33°C° 0 mm 4 mps 717 mmHg 11%
    16:00 +33°C° 0 mm 4 mps 717 mmHg 10%
    17:00 +33°C° 0 mm 4 mps 717 mmHg 10%
    18:00 +33°C° 0 mm 4 mps 716 mmHg 10%
    19:00 +30°C° 0 mm 4 mps 717 mmHg 11%
    20:00 +29°C° 0 mm 4 mps 717 mmHg 13%
    21:00 +27°C° 0 mm 4 mps 717 mmHg 14%
    22:00 +27°C° 0 mm 4 mps 717 mmHg 15%
    23:00 +26°C° 0 mm 4 mps 717 mmHg 15%

    Tomorrow, 21 February, Tuesday

    Time Temperature Precipitation Wind Pressure Humidity
    00:00 +25°C° 0 mm 4 mps 717 mmHg 16%
    01:00 +23°C° 0 mm 4 mps 717 mmHg 17%
    02:00 +23°C° 0 mm 4 mps 717 mmHg 18%
    03:00 +22°C° 0 mm 4 mps 717 mmHg 19%
    04:00 +22°C° 0 mm 4 mps 717 mmHg 20%
    05:00 +21°C° 0 mm 4 mps 717 mmHg 21%
    06:00 +20°C° 0 mm 3 mps 717 mmHg 22%
    07:00 +23°C° 0 mm 4 mps 717 mmHg 20%
    08:00 +26°C° 0 mm 5 mps 718 mmHg 18%
    09:00 +28°C° 0 mm 6 mps 718 mmHg 16%
    10:00 +30°C° 0 mm 5 mps 718 mmHg 14%
    11:00 +32°C° 0 mm 4 mps 718 mmHg 12%
    12:00 +34°C° 0 mm 4 mps 717 mmHg 11%
    13:00 +35°C° 0 mm 3 mps 717 mmHg 10%
    14:00 +36°C° 0 mm 3 mps 716 mmHg 9%
    15:00 +36°C° 0 mm 3 mps 716 mmHg 8%
    16:00 +36°C° 0 mm 3 mps 716 mmHg 8%
    17:00 +36°C° 0 mm 3 mps 716 mmHg 8%
    18:00 +36°C° 0 mm 3 mps 715 mmHg 8%
    19:00 +34°C° 0 mm 2 mps 716 mmHg 9%
    20:00 +32°C° 0 mm 2 mps 716 mmHg 11%
    21:00 +30°C° 0 mm 2 mps 716 mmHg 12%
    22:00 +29°C° 0 mm 2 mps 716 mmHg 12%
    23:00 +29°C° 0 mm 2 mps 716 mmHg 12%

    Day after tomorrow, 22 February, Wednesday

    Time Temperature Precipitation Wind Pressure Humidity
    00:00 +29°C° 0 mm 2 mps 716 mmHg 12%
    01:00 +28°C° 0 mm 3 mps 716 mmHg 13%
    02:00 +27°C° 0 mm 3 mps 715 mmHg 13%
    03:00 +27°C° 0 mm 3 mps 715 mmHg 13%
    04:00 +26°C° 0 mm 3 mps 715 mmHg 14%
    05:00 +26°C° 0 mm 3 mps 715 mmHg 14%
    06:00 +25°C° 0 mm 2 mps 716 mmHg 15%
    07:00 +27°C° 0 mm 3 mps 717 mmHg 14%
    08:00 +30°C° 0 mm 3 mps 717 mmHg 13%
    09:00 +33°C° 0 mm 3 mps 718 mmHg 12%
    10:00 +34°C° 0 mm 3 mps 718 mmHg 12%
    11:00 +35°C° 0 mm 3 mps 718 mmHg 12%
    12:00 +37°C° 0 mm 3 mps 718 mmHg 12%
    13:00 +37°C° 0 mm 3 mps 717 mmHg 12%
    14:00 +38°C° 0 mm 3 mps 717 mmHg 12%
    15:00 +39°C° 0 mm 3 mps 716 mmHg 12%
    16:00 +38°C° 0 mm 4 mps 716 mmHg 13%
    17:00 +38°C° 0 mm 4 mps 716 mmHg 14%
    18:00 +39°C° 0 mm 5 mps 717 mmHg 15%
    19:00 +36°C° 0 mm 5 mps 717 mmHg 18%
    20:00 +35°C° 0 mm 6 mps 718 mmHg 20%
    21:00 +33°C° 0 mm 6 mps 718 mmHg 22%
    22:00 +33°C° 0 mm 6 mps 718 mmHg 24%
    23:00 +32°C° 0 mm 7 mps 718 mmHg 25%

    23 February, Thursday

    Time Temperature Precipitation Wind Pressure Humidity
    00:00 +30°C° 0 mm 7 mps 719 mmHg 27%
    01:00 +29°C° 0 mm 7 mps 718 mmHg 28%
    02:00 +28°C° 0 mm 7 mps 718 mmHg 29%
    03:00 +27°C° 0 mm 6 mps 718 mmHg 30%
    04:00 +27°C° 0 mm 6 mps 718 mmHg 31%
    05:00 +26°C° 0 mm 6 mps 719 mmHg 32%
    06:00 +25°C° 0 mm 5 mps 719 mmHg 32%
    07:00 +27°C° 0 mm 6 mps 720 mmHg 30%
    08:00 +28°C° 0 mm 7 mps 720 mmHg 27%
    09:00 +29°C° 0 mm 8 mps 721 mmHg 24%
    10:00 +32°C° 0 mm 8 mps 721 mmHg 22%
    11:00 +34°C° 0 mm 7 mps 721 mmHg 19%
    12:00 +36°C° 0 mm 7 mps 720 mmHg 16%
    13:00 +38°C° 0 mm 6 mps 720 mmHg 14%
    14:00 +39°C° 0 mm 6 mps 719 mmHg 13%
    15:00 +39°C° 0 mm 6 mps 719 mmHg 12%
    16:00 +39°C° 0 mm 6 mps 719 mmHg 13%
    17:00 +38°C° 0 mm 6 mps 719 mmHg 13%
    18:00 +38°C° 0 mm 6 mps 719 mmHg 14%
    19:00 +36°C° 0 mm 6 mps 719 mmHg 16%
    20:00 +34°C° 0 mm 6 mps 720 mmHg 18%
    21:00 +33°C° 0 mm 6 mps 721 mmHg 19%
    22:00 +32°C° 0 mm 6 mps 721 mmHg 21%
    23:00 +30°C° 0 mm 6 mps 721 mmHg 22%

    24 February, Friday

    Time Temperature Precipitation Wind Pressure Humidity
    00:00 +30°C° 0 mm 6 mps 721 mmHg 23%
    01:00 +29°C° 0 mm 6 mps 720 mmHg 26%
    02:00 +28°C° 0 mm 6 mps 720 mmHg 28%
    03:00 +28°C° 0 mm 6 mps 720 mmHg 30%
    04:00 +27°C° 0 mm 6 mps 720 mmHg 32%
    05:00 +27°C° 0 mm 6 mps 721 mmHg 33%
    06:00 +26°C° 0 mm 6 mps 721 mmHg 35%
    07:00 +27°C° 0 mm 6 mps 721 mmHg 32%
    08:00 +29°C° 0 mm 7 mps 722 mmHg 28%
    09:00 +32°C° 0 mm 8 mps 722 mmHg 25%
    10:00 +33°C° 0 mm 8 mps 722 mmHg 22%
    11:00 +35°C° 0 mm 8 mps 722 mmHg 18%
    12:00 +38°C° 0 mm 8 mps 722 mmHg 15%
    13:00 +39°C° 0 mm 7 mps 721 mmHg 14%
    14:00 +39°C° 0 mm 7 mps 721 mmHg 13%
    15:00 +40°C° 0 mm 7 mps 720 mmHg 13%
    16:00 +39°C° 0 mm 7 mps 720 mmHg 13%
    17:00 +39°C° 0 mm 7 mps 720 mmHg 14%
    18:00 +38°C° 0 mm 7 mps 720 mmHg 15%
    19:00 +36°C° 0 mm 7 mps 720 mmHg 17%
    20:00 +34°C° 0 mm 6 mps 721 mmHg 19%
    21:00 +33°C° 0 mm 6 mps 721 mmHg 21%
    22:00 +32°C° 0 mm 6 mps 721 mmHg 22%
    23:00 +30°C° 0 mm 6 mps 721 mmHg 23%

    25 February, Saturday

    Time Temperature Precipitation Wind Pressure Humidity
    00:00 +30°C° 0 mm 6 mps 721 mmHg 24%
    01:00 +29°C° 0 mm 6 mps 720 mmHg 24%
    02:00 +28°C° 0 mm 6 mps 720 mmHg 24%
    03:00 +28°C° 0 mm 6 mps 720 mmHg 23%
    04:00 +27°C° 0 mm 5 mps 720 mmHg 24%
    05:00 +27°C° 0 mm 5 mps 721 mmHg 25%
    06:00 +26°C° 0 mm 5 mps 721 mmHg 26%
    07:00 +28°C° 0 mm 6 mps 721 mmHg 24%
    08:00 +29°C° 0 mm 7 mps 722 mmHg 22%
    09:00 +32°C° 0 mm 8 mps 722 mmHg 20%
    10:00 +34°C° 0 mm 8 mps 722 mmHg 18%
    11:00 +36°C° 0 mm 7 mps 721 mmHg 16%
    12:00 +39°C° 0 mm 7 mps 721 mmHg 14%
    13:00 +39°C° 0 mm 7 mps 720 mmHg 14%
    14:00 +40°C° 0 mm 7 mps 720 mmHg 13%
    15:00 +40°C° 0 mm 6 mps 719 mmHg 12%
    16:00 +40°C° 0 mm 6 mps 719 mmHg 13%
    17:00 +39°C° 0 mm 6 mps 719 mmHg 13%
    18:00 +39°C° 0 mm 6 mps 719 mmHg 13%
    19:00 +36°C° 0 mm 6 mps 719 mmHg 15%
    20:00 +35°C° 0 mm 5 mps 719 mmHg 16%
    21:00 +33°C° 0 mm 5 mps 719 mmHg 17%
    22:00 +32°C° 0 mm 5 mps 719 mmHg 18%
    23:00 +32°C° 0 mm 5 mps 719 mmHg 18%
    Show more